Location: Montr�al
(45.5000°N, 73.5830°W)
Time: 18:28:29
(UTC-04:00)

Cosmos 1151 Rocket - Visible Passes

Search period start: 23 May 2017 00:00
Search period end: 02 June 2017 00:00
Orbit: 592 x 617 km, 82.5° (Epoch: 22 May)

Date Brightness Start Highest point End Pass type
(mag) Time Alt. Az. Time Alt. Az. Time Alt. Az.
23 May 5.3 02:02:22 10° NNE 02:05:35 20° ENE 02:08:46 10° ESE visible
23 May 3.6 03:39:16 10° NNW 03:43:18 40° W 03:45:58 19° SSW visible
24 May 4.6 02:14:40 10° N 02:18:32 31° ENE 02:21:29 15° SE visible
24 May 4.2 03:52:26 10° NW 03:55:58 25° W 03:58:18 16° SW visible
25 May 3.7 02:27:11 10° N 02:31:25 50° ENE 02:33:50 23° SE visible
25 May 4.8 04:05:57 10° NW 04:08:33 16° W 04:10:41 12° WSW visible
26 May 3.0 02:39:53 10° N 02:44:14 83° ENE 02:46:15 32° SSE visible
27 May 5.6 01:16:38 10° NNE 01:19:02 14° ENE 01:21:25 10° E visible
27 May 3.1 02:52:43 10° NNW 02:57:00 59° W 02:58:41 34° SSW visible
28 May 5.1 01:28:37 10° NNE 01:32:02 22° ENE 01:34:18 15° ESE visible
28 May 3.8 03:05:44 10° NNW 03:09:42 36° W 03:11:08 28° SW visible
29 May 4.3 01:40:59 10° N 01:44:59 34° ENE 01:46:46 24° ESE visible
29 May 4.4 03:18:57 10° NW 03:22:20 22° W 03:23:36 20° WSW visible
30 May 3.5 01:53:34 10° N 01:57:52 56° E 01:59:16 37° SE visible
30 May 5.0 03:32:36 10° NW 03:34:54 14° W 03:36:06 13° WSW visible
31 May 5.8 00:32:03 10° ENE 00:32:26 10° ENE 00:32:48 10° ENE visible
31 May 2.9 02:06:17 10° N 02:10:40 88° W 02:11:47 50° S visible
01 Jun 5.3 00:42:47 10° NNE 00:45:30 16° ENE 00:47:29 12° E visible
01 Jun 3.3 02:19:10 10° NNW 02:23:24 53° W 02:24:19 44° SW visible
